Retour au catalogue

COSMOS 2251 DEB

ActifLEO
NORAD 34911·DEBRIS·🇷🇺 Russia

Lancé Jun 16, 1993 depuis Plesetsk Cosmodrome

Loading…

Prochains Passages (prochaines 24 heures)

TLE

FraisSource: Space-Track

Époque: Sep 14, 2026, 18:31 UTC

1 34911U 93036ADG 26257.77158981  .00000439  00000-0  94128-4 0  9991
2 34911  74.0388  78.5027 0082883 135.0109 238.7865 14.59680810926140

Suivez COSMOS 2251 DEB en temps réel avec AllMySat

Download on the App Store